• In Latvia
  • List of Countries
  • For 7 days
  • Water Temperature
  • Satellite Maps
  • Weather Map
  • Weather Widgets
  • user-avatar
    Login

    Hourly Weather Molepolole

    Today, 18 February, Sunday

    Time Temperature Precipitation Wind Pressure Humidity
    00:00 +26°C° 0 mm 1 mps 662 mmHg 40%
    01:00 +26°C° 0 mm 2 mps 662 mmHg 41%
    02:00 +25°C° 0 mm 2 mps 662 mmHg 45%
    03:00 +24°C° 0 mm 2 mps 662 mmHg 49%
    04:00 +24°C° 0 mm 2 mps 662 mmHg 52%
    05:00 +22°C° 0 mm 3 mps 662 mmHg 56%
    06:00 +24°C° 0.2 mm 3 mps 663 mmHg 59%
    07:00 +23°C° 0.2 mm 4 mps 663 mmHg 62%
    08:00 +25°C° 0.2 mm 4 mps 663 mmHg 65%
    09:00 +27°C° 0.3 mm 4 mps 664 mmHg 56%
    10:00 +29°C° 0.3 mm 4 mps 664 mmHg 47%
    11:00 +32°C° 0.3 mm 4 mps 665 mmHg 38%
    12:00 +33°C° 0 mm 4 mps 664 mmHg 37%
    13:00 +33°C° 0 mm 3 mps 664 mmHg 35%
    14:00 +34°C° 0 mm 3 mps 663 mmHg 33%
    15:00 +33°C° 0.1 mm 3 mps 663 mmHg 35%
    16:00 +33°C° 0.1 mm 3 mps 663 mmHg 36%
    17:00 +33°C° 0.1 mm 3 mps 662 mmHg 38%
    18:00 +30°C° 0.3 mm 3 mps 662 mmHg 45%
    19:00 +28°C° 0.3 mm 3 mps 662 mmHg 52%
    20:00 +26°C° 0.3 mm 3 mps 662 mmHg 60%
    21:00 +25°C° 1.3 mm 3 mps 662 mmHg 65%
    22:00 +24°C° 1.3 mm 2 mps 662 mmHg 69%
    23:00 +23°C° 1.3 mm 2 mps 663 mmHg 74%

    Tomorrow, 19 February, Monday

    Time Temperature Precipitation Wind Pressure Humidity
    00:00 +23°C° 0 mm 2 mps 662 mmHg 75%
    01:00 +23°C° 0 mm 2 mps 662 mmHg 76%
    02:00 +23°C° 0 mm 2 mps 662 mmHg 77%
    03:00 +21°C° 0 mm 2 mps 662 mmHg 80%
    04:00 +21°C° 0 mm 2 mps 661 mmHg 82%
    05:00 +21°C° 0 mm 2 mps 661 mmHg 84%
    06:00 +23°C° 0 mm 2 mps 662 mmHg 80%
    07:00 +24°C° 0 mm 3 mps 663 mmHg 76%
    08:00 +25°C° 0 mm 3 mps 664 mmHg 72%
    09:00 +27°C° 0.1 mm 3 mps 664 mmHg 63%
    10:00 +29°C° 0.1 mm 3 mps 664 mmHg 54%
    11:00 +31°C° 0.1 mm 3 mps 664 mmHg 45%
    12:00 +31°C° 0 mm 3 mps 664 mmHg 42%
    13:00 +32°C° 0 mm 2 mps 664 mmHg 39%
    14:00 +34°C° 0 mm 2 mps 663 mmHg 36%
    15:00 +34°C° 0 mm 2 mps 663 mmHg 36%
    16:00 +34°C° 0 mm 2 mps 663 mmHg 36%
    17:00 +34°C° 0 mm 3 mps 662 mmHg 35%
    18:00 +31°C° 0 mm 2 mps 662 mmHg 39%
    19:00 +30°C° 0 mm 2 mps 662 mmHg 43%
    20:00 +29°C° 0 mm 2 mps 663 mmHg 47%
    21:00 +28°C° 0 mm 2 mps 663 mmHg 50%
    22:00 +27°C° 0 mm 2 mps 663 mmHg 52%
    23:00 +27°C° 0 mm 2 mps 663 mmHg 55%

    Day after tomorrow, 20 February, Tuesday

    Time Temperature Precipitation Wind Pressure Humidity
    00:00 +26°C° 0 mm 2 mps 663 mmHg 58%
    01:00 +25°C° 0 mm 2 mps 662 mmHg 61%
    02:00 +25°C° 0 mm 2 mps 662 mmHg 64%
    03:00 +24°C° 0 mm 2 mps 662 mmHg 67%
    04:00 +24°C° 0 mm 2 mps 662 mmHg 70%
    05:00 +23°C° 0 mm 2 mps 662 mmHg 73%
    06:00 +24°C° 0 mm 2 mps 663 mmHg 70%
    07:00 +25°C° 0 mm 2 mps 663 mmHg 67%
    08:00 +26°C° 0 mm 3 mps 664 mmHg 64%
    09:00 +28°C° 0.2 mm 2 mps 664 mmHg 57%
    10:00 +30°C° 0.2 mm 2 mps 665 mmHg 50%
    11:00 +31°C° 0.2 mm 2 mps 665 mmHg 43%
    12:00 +32°C° 0 mm 2 mps 664 mmHg 40%
    13:00 +34°C° 0 mm 2 mps 664 mmHg 38%
    14:00 +34°C° 0 mm 2 mps 663 mmHg 35%
    15:00 +34°C° 0 mm 2 mps 663 mmHg 34%
    16:00 +34°C° 0 mm 2 mps 662 mmHg 34%
    17:00 +34°C° 0 mm 3 mps 662 mmHg 33%
    18:00 +32°C° 0 mm 2 mps 662 mmHg 37%
    19:00 +31°C° 0 mm 2 mps 662 mmHg 40%
    20:00 +29°C° 0 mm 2 mps 662 mmHg 44%
    21:00 +28°C° 0.1 mm 2 mps 662 mmHg 47%
    22:00 +28°C° 0.1 mm 2 mps 662 mmHg 51%
    23:00 +27°C° 0.1 mm 2 mps 662 mmHg 54%

    21 February, Wednesday

    Time Temperature Precipitation Wind Pressure Humidity
    00:00 +26°C° 0.3 mm 2 mps 662 mmHg 58%
    01:00 +25°C° 0.3 mm 2 mps 662 mmHg 62%
    02:00 +25°C° 0.3 mm 2 mps 661 mmHg 66%
    03:00 +24°C° 1 mm 2 mps 661 mmHg 72%
    04:00 +23°C° 1 mm 2 mps 662 mmHg 78%
    05:00 +23°C° 1 mm 2 mps 662 mmHg 84%
    06:00 +23°C° 0.5 mm 2 mps 662 mmHg 81%
    07:00 +24°C° 0.5 mm 3 mps 663 mmHg 79%
    08:00 +24°C° 0.5 mm 3 mps 664 mmHg 76%
    09:00 +26°C° 0.1 mm 3 mps 664 mmHg 69%
    10:00 +27°C° 0.1 mm 3 mps 664 mmHg 62%
    11:00 +29°C° 0.1 mm 3 mps 664 mmHg 54%
    12:00 +29°C° 0.3 mm 3 mps 664 mmHg 52%
    13:00 +30°C° 0.3 mm 3 mps 663 mmHg 50%
    14:00 +30°C° 0.3 mm 2 mps 662 mmHg 47%
    15:00 +30°C° 0.2 mm 3 mps 662 mmHg 48%
    16:00 +30°C° 0.2 mm 4 mps 662 mmHg 49%
    17:00 +29°C° 0.2 mm 4 mps 661 mmHg 50%
    18:00 +28°C° 0.2 mm 4 mps 661 mmHg 56%
    19:00 +26°C° 0.2 mm 4 mps 661 mmHg 62%
    20:00 +25°C° 0.2 mm 4 mps 662 mmHg 67%
    21:00 +23°C° 0.1 mm 4 mps 662 mmHg 70%
    22:00 +23°C° 0.1 mm 4 mps 662 mmHg 73%
    23:00 +22°C° 0.1 mm 5 mps 662 mmHg 76%

    22 February, Thursday

    Time Temperature Precipitation Wind Pressure Humidity
    00:00 +22°C° 0 mm 4 mps 662 mmHg 78%
    01:00 +21°C° 0 mm 4 mps 661 mmHg 79%
    02:00 +21°C° 0 mm 4 mps 661 mmHg 80%
    03:00 +21°C° 0 mm 4 mps 661 mmHg 83%
    04:00 +20°C° 0 mm 4 mps 661 mmHg 85%
    05:00 +20°C° 0 mm 4 mps 661 mmHg 87%
    06:00 +21°C° 0 mm 4 mps 662 mmHg 84%
    07:00 +21°C° 0 mm 4 mps 662 mmHg 81%
    08:00 +22°C° 0 mm 4 mps 663 mmHg 78%
    09:00 +23°C° 0.1 mm 4 mps 663 mmHg 73%
    10:00 +25°C° 0.1 mm 4 mps 664 mmHg 69%
    11:00 +25°C° 0.1 mm 4 mps 664 mmHg 65%
    12:00 +25°C° 0.3 mm 5 mps 663 mmHg 64%
    13:00 +25°C° 0.3 mm 5 mps 663 mmHg 64%
    14:00 +24°C° 0.3 mm 6 mps 663 mmHg 64%
    15:00 +24°C° 0.1 mm 6 mps 662 mmHg 64%
    16:00 +23°C° 0.1 mm 6 mps 662 mmHg 65%
    17:00 +23°C° 0.1 mm 6 mps 662 mmHg 66%
    18:00 +22°C° 0 mm 5 mps 662 mmHg 70%
    19:00 +21°C° 0 mm 5 mps 662 mmHg 74%
    20:00 +20°C° 0 mm 4 mps 662 mmHg 78%
    21:00 +19°C° 0 mm 4 mps 662 mmHg 79%
    22:00 +19°C° 0 mm 4 mps 662 mmHg 80%
    23:00 +19°C° 0 mm 4 mps 662 mmHg 80%

    23 February, Friday

    Time Temperature Precipitation Wind Pressure Humidity
    00:00 +18°C° 0 mm 4 mps 662 mmHg 80%
    01:00 +18°C° 0 mm 4 mps 662 mmHg 80%
    02:00 +18°C° 0 mm 4 mps 662 mmHg 79%
    03:00 +18°C° 0 mm 4 mps 662 mmHg 80%
    04:00 +18°C° 0 mm 3 mps 661 mmHg 81%
    05:00 +17°C° 0 mm 3 mps 661 mmHg 82%
    06:00 +18°C° 0 mm 4 mps 662 mmHg 80%
    07:00 +18°C° 0 mm 4 mps 662 mmHg 78%
    08:00 +19°C° 0 mm 5 mps 663 mmHg 76%
    09:00 +21°C° 0 mm 5 mps 663 mmHg 70%
    10:00 +23°C° 0 mm 5 mps 663 mmHg 63%
    11:00 +26°C° 0 mm 5 mps 663 mmHg 57%
    12:00 +26°C° 0.1 mm 5 mps 663 mmHg 58%
    13:00 +25°C° 0.1 mm 5 mps 663 mmHg 60%
    14:00 +25°C° 0.1 mm 5 mps 662 mmHg 61%
    15:00 +25°C° 0.1 mm 5 mps 662 mmHg 64%
    16:00 +23°C° 0.1 mm 5 mps 662 mmHg 68%
    17:00 +22°C° 0.1 mm 4 mps 661 mmHg 71%
    18:00 +22°C° 0.1 mm 4 mps 661 mmHg 75%
    19:00 +21°C° 0.1 mm 4 mps 662 mmHg 79%
    20:00 +20°C° 0.1 mm 3 mps 662 mmHg 83%
    21:00 +20°C° 0.2 mm 3 mps 662 mmHg 85%
    22:00 +19°C° 0.2 mm 3 mps 662 mmHg 86%
    23:00 +19°C° 0.2 mm 4 mps 662 mmHg 88%
    Show more